This is the latest recevied weather packets stored in our database for station/object KS5S. If no packets are shown the sender has not sent any weather packets the latest 10 day(s).
| Time | Temp. | Humidity | Pressure | Rain* | Wind** | Luminosity | Snow |
|---|---|---|---|---|---|---|---|
| 1778090506 | 13.33° C | 88% | 1012.6 hPa | 0 mm | - | 101 W/m² | - |
| 1778090202 | 13.89° C | 88% | 1012.7 hPa | 0 mm | - | 82 W/m² | - |
| 1778089899 | 13.89° C | 87% | 1012 hPa | 0 mm | - | 132 W/m² | - |
| 1778089592 | 13.89° C | 88% | 1011.1 hPa | 0 mm | - | 145 W/m² | - |
| 1778089288 | 13.89° C | 87% | 1010.8 hPa | 0 mm | - | 206 W/m² | - |
| 1778088986 | 13.89° C | 88% | 1010.7 hPa | 0 mm | - | 207 W/m² | - |
| 1778088683 | 13.89° C | 88% | 1010.5 hPa | 0 mm | - | 230 W/m² | - |
| 1778088380 | 13.89° C | 87% | 1011.1 hPa | 0 mm | - | 185 W/m² | - |
| 1778088076 | 13.89° C | 88% | 1011.3 hPa | 0 mm | - | 179 W/m² | - |
| 1778087773 | 13.89° C | 87% | 1011.2 hPa | 0 mm | - | 197 W/m² | - |
| 1778087471 | 13.89° C | 87% | 1011.4 hPa | 0 mm | - | 175 W/m² | - |
| 1778087167 | 13.89° C | 87% | 1011.5 hPa | 0 mm | - | 216 W/m² | - |
| 1778086860 | 13.89° C | 88% | 1011.9 hPa | 0 mm | - | 166 W/m² | - |
| 1778086558 | 13.33° C | 87% | 1011.9 hPa | 0 mm | - | 139 W/m² | - |
| 1778086254 | 13.89° C | 88% | 1011.8 hPa | 0 mm | - | 136 W/m² | - |
| 1778085951 | 13.33° C | 88% | 1012.5 hPa | 0 mm | - | 144 W/m² | - |
| 1778085648 | 13.33° C | 88% | 1012.7 hPa | 0 mm | - | 100 W/m² | - |
| 1778085344 | 13.89° C | 87% | 1012.3 hPa | 0 mm | - | 116 W/m² | - |
| 1778085039 | 13.89° C | 88% | 1012.5 hPa | 0 mm | - | 143 W/m² | - |
| 1778084736 | 13.33° C | 88% | 1012.1 hPa | 0 mm | - | 165 W/m² | - |
| 1778084428 | 13.33° C | 87% | 1011.7 hPa | 0 mm | - | 212 W/m² | - |
| 1778084125 | 13.89° C | 87% | 1011.8 hPa | 0 mm | - | 223 W/m² | - |
| 1778083822 | 13.89° C | 86% | 1011.8 hPa | 0 mm | - | 259 W/m² | - |
| 1778083520 | 13.89° C | 86% | 1011.5 hPa | 0 mm | - | 406 W/m² | - |
| 1778083217 | 13.89° C | 86% | 1011.1 hPa | 0 mm | - | 797 W/m² | - |
* Rain latest hour (hover to see other rain measurements)
** Current wind speed in m/s (hover to see current wind gust speed)